{"data":{"norad_id":64898,"intl_designator":"2025-154K","name":"SKYKRAFT-4D","alt_names":[],"object_type":"PAYLOAD","status":"ACTIVE","operator":null,"country":"AUS","launch_date":"2025-07-23","launch_site_code":"AFWTR","launch_vehicle":null,"mission":null,"orbit_class":"UNKNOWN","rcs_meters":null,"size_class":null,"mass_kg":null,"dimensions":null,"purposes":[],"wikipedia_slug":null,"has_3d_model":false,"image_url":null,"decayed_at":null,"tle_current":{"epoch":"2026-09-21T17:11:33.580896Z","epoch_age_seconds":66216,"freshness":"FRESH","line1":"1 64898U 25154K   26264.71636089  .00002755  00000+0  24396-3 0  9997","line2":"2 64898  97.6582 326.9317 0002654 293.5142  66.5801 14.97068687 61737","mean_motion":14.97068687,"eccentricity":0.0002654,"inclination_deg":97.6582,"raan_deg":326.9317,"arg_perigee_deg":293.5142,"mean_anomaly_deg":66.5801,"bstar":0.00024396,"rev_number":6173,"period_min":96.187971367275,"perigee_km":574.11351853151,"apogee_km":577.80475276031,"semimajor_km":6954.0961356459,"source":"CELESTRAK","updated_at":"2026-09-22T09:00:30.019890Z"}}}